Temp
60 59 59 60 59 60 59 59 60 60 59 59 59 59 58 57 57 52 48 50 50 47 45 49 49 42 44 43 40 45 44 44 41 38 35 37 36 43 40 42 39 38 31 29 30 27 30 48 46 42 44 43 46 45
59 59 59 59 59 59 58 59 59 59 59 59 58 58 58 57 56 54 46 51 52 47 48 51 52 54 51 51 46 44 43 44 44 40 38 37 38 36 38 36 40 36 42 36 37 37 46 46 45 46 47 46 44 45
59 58 58 58 58 59 58 59 59 59 58 58 58 58 58 57 56 53 46 46 47 46 45 46 46 55 54 54 54 43 44 48 47 47 42 40 38 39 35 37 37 40 43 40 40 43 45 47 46 47 48 48 47 46
58 58 57 58 58 58 58 58 59 58 58 58 58 57 57 57 56 53 44 45 46 43 39 40 51 47 52 52 53 55 51 49 47 44 43 38 36 44 39 41 40 43 43 41 39 43 43 47 46 48 47 47 46 46
57 57 57 57 57 57 58 58 58 58 58 58 57 57 57 56 55 48 44 45 48 43 38 41 48 54 51 48 50 51 49 45 42 41 39 38 41 41 37 37 35 42 43 40 41 47 46 45 46 48 46 45 45 45
57 57 57 57 57 58 57 57 58 58 58 57 57 57 56 55 52 46 41 44 47 48 42 36 43 44 46 47 47 46 45 44 42 40 40 42 43 44 29 29 43 45 46 48 47 45 46 44 46 46 45 45 45 45
56 56 56 57 57 57 56 57 57 57 57 57 56 56 55 54 48 44 40 46 49 47 42 36 35 42 47 45 43 42 43 43 41 40 39 40 41 40 27 31 45 47 47 46 46 47 43 44 45 46 46 46 48 45
56 55 56 57 57 56 56 57 56 57 57 57 56 55 54 53 50 45 45 50 50 46 45 34 37 36 46 41 38 41 40 39 40 40 38 39 39 34 31 40 45 45 44 43 45 43 46 45 44 44 45 44 43 43
55 55 56 56 57 56 56 57 56 56 56 56 54 52 46 43 42 42 51 51 49 45 34 33 33 27 42 42 42 42 40 32 38 36 37 38 33 32 42 45 44 45 46 44 43 43 43 43 42 42 42 42 41 42
54 55 56 56 56 56 56 56 56 55 55 53 46 41 37 40 51 50 43 42 42 42 40 34 40 34 41 38 37 37 32 30 29 37 36 30 35 41 45 45 47 47 46 44 41 39 39 38 41 40 41 43 43 42
54 54 55 55 55 55 55 55 55 54 52 43 38 36 43 50 41 38 35 36 36 32 36 37 38 36 45 38 37 38 32 33 28 35 34 30 29 37 44 48 46 46 46 48 44 46 46 46 43 41 42 43 42 41
54 54 54 54 54 54 54 54 54 47 44 43 41 45 44 40 38 33 32 33 33 32 38 34 37 42 42 44 39 35 32 27 28 32 26 29 34 42 42 42 43 43 45 45 45 44 43 44 44 43 41 40 41 41
54 54 54 54 53 53 54 54 53 51 49 42 39 37 34 34 29 27 26 30 31 34 35 37 38 39 40 41 37 34 27 26 32 24 29 32 38 40 41 41 41 42 45 44 43 44 45 43 44 43 41 41 40 40
54 53 53 53 53 53 53 52 51 51 42 35 32 28 30 28 30 27 29 31 36 35 37 44 37 39 38 36 35 31 31 29 22 23 29 36 38 39 39 41 43 41 43 42 42 44 43 43 41 42 42 41 40 38
53 53 52 52 52 52 53 52 52 47 39 33 33 26 28 30 30 32 34 33 37 38 40 39 37 38 33 34 34 31 24 21 27 31 36 41 37 40 38 40 41 42 42 42 43 43 42 42 42 39 39 39 39 38
52 51 49 52 52 52 51 51 50 43 37 34 33 30 33 29 28 30 32 34 38 42 44 41 35 33 32 32 28 27 24 27 35 36 41 37 39 41 40 42 43 43 43 43 42 42 42 41 40 38 38 38 37 37
51 45 51 52 52 51 50 45 42 35 34 32 31 35 33 32 35 35 35 36 41 42 35 35 30 31 31 26 20 27 30 38 41 40 40 39 41 40 42 42 43 43 42 41 40 41 39 39 39 38 35 36 37 37
46 49 52 52 51 48 44 40 34 32 30 33 30 33 34 33 34 34 37 39 40 39 42 37 36 30 27 23 26 36 37 40 39 40 41 38 39 42 45 43 43 43 41 41 41 39 38 38 36 35 35 35 35 35
49 50 52 51 49 37 33 33 36 31 32 34 31 35 34 34 36 38 38 40 41 41 41 37 34 30 32 33 37 42 46 42 41 40 39 39 41 43 43 43 42 41 40 40 40 40 38 37 36 35 35 35 32 32
52 51 51 51 49 35 31 30 36 33 31 32 32 33 35 39 40 37 37 38 38 39 35 34 35 36 37 42 43 44 45 44 43 38 35 38 41 43 43 43 43 42 39 37 38 40 36 35 35 36 35 35 32 31
49 49 50 49 39 37 33 31 32 33 34 34 32 34 31 34 35 36 34 37 35 32 34 36 38 46 53 44 45 46 44 46 43 41 42 39 44 44 43 42 42 42 39 38 37 37 38 36 34 35 35 33 32 32
45 51 43 40 33 32 32 34 33 35 33 33 31 32 29 30 31 32 36 35 31 35 38 39 41 43 44 44 45 45 46 44 44 46 45 45 41 41 40 43 41 38 38 38 38 36 35 34 34 35 34 33 34 32
43 40 33 32 31 31 30 37 33 33 30 31 32 30 29 28 31 36 31 32 35 39 44 45 43 44 44 45 44 44 45 45 44 44 45 44 43 44 43 42 41 38 35 34 38 37 35 38 38 34 35 33 31 31
42 35 32 31 31 28 32 31 34 32 33 32 28 24 30 29 31 28 28 30 34 40 40 42 44 40 41 41 40 43 45 47 44 43 42 43 41 40 42 41 40 39 40 38 37 36 36 35 38 34 33 32 30 30
32 30 32 29 31 28 28 28 30 31 28 28 28 28 31 33 29 27 28 31 37 38 42 42 42 44 41 42 40 40 44 46 43 40 43 45 42 39 37 37 36 38 40 37 35 35 34 35 34 34 33 32 31 31
27 29 29 27 27 25 27 24 28 27 29 30 30 30 30 30 28 28 29 39 35 40 40 40 42 43 39 42 41 41 43 47 47 42 44 45 45 43 38 36 34 32 38 40 37 35 34 35 34 33 32 34 37 32
25 26 30 31 30 30 29 28 29 29 27 25 29 29 29 25 25 29 34 37 41 41 45 45 46 46 45 42 42 44 47 48 46 45 46 47 47 46 44 40 37 39 39 40 39 38 36 34 33 33 32 31 32 32
27 30 29 30 30 30 28 29 29 28 28 29 30 25 26 28 30 35 35 36 36 43 45 45 47 48 47 46 47 46 44 42 43 42 41 39 37 39 39 41 41 42 41 41 39 38 37 35 34 33 32 31 30 31
28 29 31 25 27 28 27 29 29 31 33 32 30 28 30 32 30 29 31 31 33 41 39 40 39 44 44 44 45 45 43 43 40 36 37 35 35 33 38 40 41 40 40 39 42 39 37 36 35 34 32 32 31 31
26 30 28 28 24 25 29 30 29 31 31 32 32 30 29 28 28 29 30 32 33 38 40 42 41 42 39 39 37 38 43 46 46 46 40 38 39 37 39 40 39 40 40 39 37 38 42 38 38 33 31 30 29 29
31 29 27 28 22 26 29 30 31 32 32 30 31 30 30 30 32 33 33 32 33 36 40 39 40 42 41 40 39 38 38 39 43 43 44 42 39 41 41 41 41 41 40 39 38 37 35 33 32 30 29 28 29 29
30 29 27 23 25 25 29 30 30 30 31 29 27 29 28 30 30 32 33 32 35 37 41 41 39 39 43 44 45 44 46 42 43 42 40 42 41 41 41 41 41 41 40 38 36 34 33 32 30 30 29 29 28 28
28 28 28 26 27 28 28 29 26 25 27 27 28 29 30 31 30 31 31 31 34 37 40 42 43 43 43 43 44 43 43 43 42 44 44 43 42 41 41 41 41 40 37 36 34 33 31 30 30 29 29 28 28 28
MSLP
1010.46 1011.36 1011.66 1012.83 1013.54 1014.09 1014.77 1015.36 1015.93 1016.35 1016.59 1017.37 1017.66 1017.78 1018.08 1018.46 1018.53 1018.83 1019.00 1019.01 1019.38 1019.24 1018.76 1018.38 1018.07 1017.97 1017.78 1017.44 1017.17 1016.33 1015.87 1015.50 1015.73 1016.00 1016.04 1015.20 1014.74 1013.63 1013.43 1013.25 1013.48 1014.19 1015.15 1015.97 1016.07 1015.27 1013.59 1011.80 1012.02 1012.13 1011.64 1011.64 1011.86 1012.44
1009.32 1010.21 1010.81 1011.54 1012.57 1013.16 1013.90 1014.54 1015.13 1015.54 1016.15 1016.61 1017.17 1017.59 1017.76 1018.19 1018.40 1018.55 1019.09 1018.75 1018.78 1019.10 1018.29 1017.72 1017.46 1017.25 1017.26 1017.13 1017.25 1016.85 1016.53 1015.98 1015.47 1015.90 1015.94 1015.38 1014.78 1014.29 1014.06 1013.86 1013.34 1013.74 1013.62 1014.29 1014.62 1013.37 1011.97 1011.58 1011.31 1011.22 1011.55 1012.07 1012.51 1013.00
1008.14 1008.90 1009.64 1010.50 1011.51 1012.21 1013.06 1013.77 1014.23 1014.89 1015.41 1016.00 1016.63 1017.07 1017.39 1017.81 1018.20 1018.37 1018.87 1018.94 1018.94 1018.61 1017.87 1017.39 1016.56 1015.90 1016.35 1016.50 1016.49 1016.98 1016.27 1015.71 1015.59 1015.44 1015.76 1015.39 1014.96 1014.31 1014.39 1013.99 1013.34 1012.98 1013.02 1013.44 1013.55 1012.04 1011.77 1011.52 1011.41 1011.55 1011.74 1012.19 1012.72 1013.20
1006.87 1007.50 1008.48 1009.40 1010.36 1011.22 1012.13 1012.82 1013.44 1014.10 1014.79 1015.29 1015.95 1016.62 1016.99 1017.41 1017.69 1018.20 1018.87 1018.80 1018.93 1018.84 1018.03 1016.53 1015.68 1015.74 1015.39 1015.57 1015.80 1015.77 1015.72 1015.85 1015.86 1015.83 1015.86 1015.57 1015.04 1014.03 1014.11 1013.68 1013.32 1012.73 1012.95 1012.91 1012.77 1012.01 1011.65 1011.28 1011.36 1011.71 1012.15 1012.51 1013.05 1013.75
1005.51 1006.34 1007.35 1008.27 1009.29 1010.29 1011.07 1011.83 1012.58 1013.40 1014.14 1014.74 1015.32 1015.84 1016.41 1017.04 1017.52 1018.23 1018.70 1018.64 1018.49 1018.75 1017.83 1016.66 1015.89 1014.92 1014.72 1014.95 1015.04 1015.18 1015.60 1016.12 1016.44 1016.23 1016.01 1015.60 1014.57 1014.42 1014.36 1014.16 1012.91 1012.13 1011.71 1012.04 1011.33 1010.87 1010.88 1011.05 1011.06 1011.56 1012.33 1012.95 1013.41 1013.99
1004.11 1005.13 1006.15 1007.23 1008.17 1009.28 1010.24 1011.09 1011.90 1012.67 1013.51 1014.25 1014.85 1015.45 1016.02 1016.58 1017.51 1018.41 1018.73 1018.29 1018.09 1018.38 1018.30 1016.85 1015.41 1014.76 1014.41 1014.60 1014.98 1015.28 1015.56 1016.14 1016.18 1016.06 1015.39 1014.74 1014.19 1014.17 1014.55 1014.08 1011.36 1010.69 1010.33 1010.02 1010.25 1010.36 1010.74 1011.01 1011.24 1011.77 1012.49 1013.24 1013.91 1014.35
1002.71 1003.88 1005.03 1006.15 1007.18 1008.28 1009.54 1010.45 1011.36 1012.10 1012.88 1013.75 1014.55 1015.16 1015.73 1016.31 1017.09 1017.62 1017.82 1017.46 1017.56 1018.18 1018.25 1017.27 1015.54 1014.35 1014.02 1014.26 1014.67 1015.33 1015.54 1015.71 1015.81 1015.51 1015.17 1014.69 1014.48 1014.19 1014.17 1012.79 1010.73 1009.97 1009.75 1009.99 1010.21 1010.61 1011.27 1011.31 1011.71 1012.26 1012.77 1013.54 1014.11 1014.74
1001.34 1002.66 1003.94 1004.97 1006.25 1007.32 1008.65 1009.61 1010.56 1011.54 1012.28 1013.29 1014.13 1014.87 1015.55 1016.36 1017.07 1017.30 1017.35 1017.51 1017.65 1017.87 1017.89 1017.29 1015.89 1015.16 1014.13 1014.30 1014.66 1015.12 1015.51 1015.67 1015.28 1014.92 1014.75 1014.61 1014.71 1014.52 1013.41 1010.51 1010.03 1009.75 1009.71 1009.94 1010.29 1010.45 1010.53 1011.26 1012.11 1012.79 1013.23 1013.90 1014.65 1015.20
1000.08 1001.48 1002.85 1004.05 1005.20 1006.47 1007.74 1008.88 1009.88 1010.97 1011.95 1012.88 1014.07 1015.08 1015.99 1016.59 1017.09 1016.54 1016.36 1016.88 1017.27 1017.96 1017.69 1017.10 1016.13 1015.22 1014.01 1014.04 1014.54 1015.14 1015.30 1015.67 1015.24 1014.91 1014.55 1014.62 1014.35 1012.99 1010.03 1009.46 1009.39 1009.39 1009.54 1009.97 1010.67 1010.96 1011.27 1011.84 1012.58 1013.19 1013.70 1014.39 1014.97 1015.53
998.85 1000.35 1001.73 1003.12 1004.31 1005.49 1006.88 1008.15 1009.22 1010.45 1011.58 1012.97 1014.46 1015.26 1016.15 1016.05 1015.91 1016.17 1016.60 1017.31 1017.22 1016.82 1016.62 1016.05 1015.57 1015.15 1014.61 1014.62 1014.73 1015.47 1015.38 1015.27 1015.43 1014.29 1014.19 1014.15 1012.39 1009.94 1008.81 1008.72 1008.66 1008.83 1009.28 1009.94 1010.90 1011.91 1012.11 1012.59 1012.99 1013.50 1013.96 1014.49 1014.98 1015.59
997.74 999.30 1000.81 1002.25 1003.53 1004.81 1006.18 1007.43 1008.64 1010.06 1011.61 1012.99 1014.30 1015.24 1015.66 1015.62 1016.09 1016.39 1016.51 1016.61 1016.23 1016.02 1015.46 1014.68 1014.31 1014.04 1013.92 1014.08 1014.19 1014.74 1014.85 1014.90 1014.93 1013.80 1014.01 1013.50 1011.38 1008.69 1007.85 1007.34 1007.73 1008.43 1008.85 1009.32 1009.56 1010.16 1010.95 1011.63 1012.72 1013.54 1014.30 1014.73 1015.29 1015.84
996.91 998.46 1000.00 1001.49 1002.78 1004.20 1005.57 1006.74 1008.04 1009.66 1010.85 1012.09 1013.30 1014.63 1015.53 1015.90 1016.07 1016.10 1015.74 1015.59 1015.07 1014.47 1013.79 1013.35 1012.69 1012.74 1013.48 1013.62 1014.15 1014.58 1014.61 1014.81 1014.16 1013.58 1013.88 1012.12 1008.89 1007.33 1007.14 1007.19 1007.39 1007.92 1008.68 1009.45 1009.79 1010.51 1011.38 1012.07 1012.74 1013.53 1014.40 1015.13 1015.67 1016.16
996.11 997.65 999.18 1000.75 1002.17 1003.50 1004.87 1006.18 1007.82 1009.32 1010.56 1012.12 1013.35 1014.67 1015.05 1015.59 1015.37 1014.73 1014.13 1013.81 1013.45 1012.75 1012.10 1011.69 1011.97 1012.55 1013.35 1013.57 1014.25 1014.51 1014.37 1014.32 1013.50 1013.61 1012.11 1009.22 1007.51 1007.18 1007.16 1007.29 1007.76 1008.18 1008.75 1009.52 1010.26 1010.82 1011.56 1012.42 1013.09 1013.83 1014.85 1015.39 1015.91 1016.64
995.46 996.91 998.50 1000.06 1001.54 1002.94 1004.21 1005.89 1007.42 1008.58 1009.86 1011.76 1013.01 1014.07 1014.10 1013.69 1012.95 1012.27 1012.09 1011.71 1011.19 1010.95 1010.51 1010.27 1011.33 1012.00 1012.69 1013.67 1014.20 1014.50 1013.70 1013.57 1013.44 1012.38 1009.87 1007.78 1006.41 1006.90 1007.28 1007.53 1007.93 1008.68 1009.05 1009.76 1010.57 1011.27 1012.08 1012.87 1013.72 1014.39 1015.03 1015.64 1016.25 1016.91
995.04 996.51 998.09 999.97 1001.10 1002.51 1003.91 1005.52 1006.80 1007.92 1009.56 1011.34 1011.94 1011.75 1011.58 1011.39 1011.11 1010.73 1010.82 1010.85 1010.13 1009.80 1010.16 1010.67 1011.00 1011.93 1012.55 1013.49 1013.80 1013.87 1013.66 1012.25 1010.89 1009.12 1007.61 1005.70 1005.86 1006.45 1007.32 1007.76 1008.18 1008.82 1009.45 1010.15 1010.88 1011.75 1012.63 1013.37 1014.21 1015.11 1015.62 1016.00 1016.58 1017.21
994.94 996.84 998.03 999.42 1000.75 1002.12 1003.75 1005.44 1006.69 1007.87 1009.17 1010.08 1010.00 1010.03 1010.25 1010.90 1010.49 1010.52 1010.42 1009.91 1009.70 1009.45 1009.71 1010.36 1010.99 1012.08 1012.62 1012.81 1013.11 1012.35 1011.52 1009.78 1007.92 1006.62 1005.50 1005.54 1005.94 1006.48 1007.13 1007.77 1008.38 1008.99 1009.64 1010.50 1011.35 1012.22 1013.08 1013.88 1014.67 1015.45 1016.08 1016.56 1017.07 1017.53
994.76 995.66 997.44 998.88 1000.46 1002.03 1003.62 1005.24 1006.74 1008.02 1008.59 1008.74 1008.64 1008.86 1008.89 1009.07 1008.96 1008.96 1008.86 1008.53 1008.41 1008.96 1009.40 1010.52 1010.75 1010.74 1011.46 1011.65 1011.51 1010.15 1008.97 1006.75 1006.09 1005.60 1005.50 1005.79 1006.08 1006.54 1007.17 1007.92 1008.65 1009.27 1010.10 1010.96 1011.83 1012.76 1013.56 1014.32 1015.10 1015.89 1016.75 1017.29 1017.55 1017.97
994.62 995.85 997.16 998.62 1000.33 1002.16 1003.45 1005.06 1006.31 1007.07 1007.16 1007.19 1007.72 1008.15 1008.38 1008.10 1008.09 1008.13 1007.89 1007.75 1008.15 1008.28 1008.41 1008.68 1009.10 1009.89 1009.89 1009.39 1008.51 1007.51 1006.87 1005.91 1005.59 1005.73 1005.74 1006.03 1006.56 1006.88 1007.23 1008.05 1008.85 1009.52 1010.43 1011.32 1012.15 1013.10 1013.97 1014.84 1015.61 1016.41 1016.96 1017.49 1017.99 1018.35
994.45 995.71 997.15 998.59 1000.00 1001.88 1003.55 1004.95 1005.36 1005.64 1005.96 1006.47 1006.72 1006.75 1007.22 1007.40 1007.22 1006.92 1007.01 1007.16 1007.25 1007.41 1007.49 1007.94 1008.72 1008.40 1007.85 1007.14 1006.40 1005.41 1004.63 1005.02 1005.53 1005.92 1006.31 1006.56 1006.83 1007.19 1007.78 1008.44 1009.23 1010.02 1010.83 1011.69 1012.60 1013.48 1014.36 1014.94 1015.64 1016.48 1017.15 1017.64 1018.27 1018.68
994.68 995.94 997.33 998.74 1000.19 1002.28 1003.86 1004.76 1004.92 1005.33 1005.34 1005.59 1005.84 1006.22 1006.24 1006.23 1006.31 1006.49 1006.68 1006.82 1007.16 1007.37 1007.32 1007.06 1006.92 1006.33 1005.88 1005.29 1005.11 1004.84 1004.52 1004.10 1004.90 1006.12 1006.72 1007.06 1007.22 1007.47 1008.02 1008.59 1009.49 1010.39 1011.35 1012.32 1013.16 1013.89 1014.86 1015.70 1016.23 1016.65 1017.18 1017.78 1018.40 1018.86
995.14 996.33 997.75 999.14 1001.15 1002.32 1002.94 1003.61 1003.93 1004.02 1004.56 1004.93 1005.01 1005.39 1005.92 1005.73 1006.06 1006.18 1006.40 1006.39 1006.68 1006.57 1006.45 1006.04 1005.91 1005.40 1004.61 1004.76 1004.65 1004.32 1004.17 1004.35 1004.13 1004.24 1004.91 1006.43 1006.94 1007.39 1008.23 1009.04 1009.91 1010.80 1011.64 1012.58 1013.41 1014.43 1015.01 1015.75 1016.36 1016.75 1017.36 1018.03 1018.43 1018.79
994.25 996.26 997.74 1000.03 1001.29 1002.07 1002.17 1002.49 1002.52 1003.34 1004.13 1004.32 1004.89 1005.05 1005.40 1005.59 1005.36 1005.51 1005.52 1005.89 1005.36 1005.28 1005.37 1004.93 1005.21 1004.84 1004.40 1004.40 1004.09 1003.92 1004.06 1004.19 1004.29 1004.39 1004.96 1005.58 1006.48 1007.41 1008.27 1008.92 1009.90 1011.04 1011.91 1012.59 1013.35 1014.31 1015.18 1015.83 1016.40 1016.98 1017.64 1018.22 1018.55 1018.88
995.01 996.99 998.41 999.47 1000.46 1001.14 1001.90 1001.86 1002.21 1002.88 1003.45 1003.90 1004.40 1004.83 1005.08 1004.95 1004.48 1004.27 1004.74 1004.51 1004.29 1004.04 1003.71 1003.77 1004.12 1004.09 1003.98 1003.84 1003.88 1003.79 1003.96 1004.11 1004.36 1004.66 1005.07 1005.55 1006.34 1007.22 1008.17 1009.15 1009.92 1010.84 1012.11 1012.97 1013.45 1014.31 1015.21 1015.89 1016.56 1017.19 1017.79 1018.28 1018.66 1019.03
995.68 996.96 997.88 998.51 999.42 1000.46 1000.96 1001.12 1001.45 1002.11 1002.62 1003.14 1003.69 1004.14 1004.02 1003.86 1003.87 1003.95 1003.60 1003.31 1003.09 1003.02 1003.13 1003.09 1003.44 1003.72 1003.88 1003.89 1003.66 1003.66 1003.84 1003.99 1004.39 1004.90 1005.16 1005.68 1006.63 1007.62 1008.32 1009.23 1010.07 1010.87 1011.52 1012.62 1013.53 1014.51 1015.27 1016.00 1016.60 1017.27 1017.76 1018.28 1018.87 1019.26
995.91 997.06 997.48 998.13 998.71 999.48 1000.08 1000.48 1000.70 1000.81 1001.32 1001.91 1002.51 1002.85 1002.99 1003.21 1003.43 1003.54 1002.95 1002.03 1001.82 1001.81 1001.94 1002.30 1002.55 1002.47 1002.74 1002.88 1003.05 1003.25 1003.47 1003.77 1004.23 1004.84 1005.34 1005.63 1006.62 1007.89 1008.92 1009.70 1010.59 1011.14 1011.66 1012.68 1013.84 1014.61 1015.34 1016.04 1016.69 1017.25 1017.71 1018.31 1018.87 1019.26
995.47 996.21 996.46 997.02 997.89 998.21 998.78 999.18 999.36 999.95 1000.56 1001.25 1001.55 1001.78 1002.36 1002.59 1002.63 1002.12 1000.91 999.72 1000.00 1000.01 1000.29 1000.62 1000.88 1001.49 1001.81 1001.73 1002.16 1002.68 1002.90 1003.29 1003.83 1004.57 1005.22 1005.70 1005.87 1006.47 1007.91 1009.24 1010.53 1011.69 1011.80 1012.23 1013.22 1014.15 1015.06 1015.85 1016.63 1017.21 1017.77 1018.21 1018.62 1019.15
995.27 995.70 995.86 995.98 996.15 996.58 997.40 997.95 998.43 999.11 999.80 1000.08 1000.42 1001.23 1001.51 1001.56 1001.27 1000.22 998.78 998.07 998.06 997.97 998.07 998.36 998.82 999.48 1000.06 1000.81 1001.25 1001.82 1002.37 1003.08 1003.52 1003.90 1004.71 1005.49 1006.07 1006.50 1006.92 1007.86 1009.17 1010.19 1011.29 1012.07 1012.88 1013.49 1014.40 1015.46 1016.45 1017.10 1017.68 1018.18 1018.60 1019.02
994.50 994.82 995.07 995.61 995.80 995.84 996.65 997.35 998.00 998.23 998.21 998.53 999.41 1000.09 1000.13 999.79 999.03 997.90 997.63 997.11 996.86 996.46 996.67 997.17 997.58 998.09 998.79 999.59 1000.32 1001.32 1002.39 1003.16 1004.02 1004.85 1005.63 1006.56 1007.03 1007.29 1007.74 1008.37 1009.20 1010.11 1010.95 1011.76 1012.58 1013.42 1014.28 1015.11 1016.10 1016.92 1017.56 1018.17 1018.68 1019.05
994.13 994.21 994.42 995.25 995.78 996.19 996.14 996.37 996.45 996.33 996.35 997.29 997.81 998.32 998.21 997.63 997.56 997.69 997.62 997.44 997.49 996.77 996.88 997.25 997.87 998.31 998.99 999.62 1000.30 1000.97 1001.83 1002.11 1003.19 1004.41 1005.26 1006.33 1007.43 1008.26 1008.28 1008.72 1009.50 1010.27 1011.12 1011.95 1012.71 1013.35 1014.18 1015.00 1015.97 1016.82 1017.53 1018.18 1018.71 1019.04
994.17 994.24 994.75 995.21 995.63 996.06 996.05 996.17 996.09 995.99 996.21 996.47 996.66 997.33 997.54 997.61 997.71 997.73 997.64 997.42 997.31 996.71 996.35 996.52 997.04 997.60 998.52 999.49 1000.55 1001.50 1001.80 1002.02 1002.16 1002.02 1002.58 1004.24 1005.44 1006.83 1007.70 1008.57 1009.30 1010.11 1011.02 1011.94 1012.91 1013.86 1014.58 1015.44 1016.40 1017.29 1017.97 1018.59 1019.02 1019.33
993.65 994.04 994.41 995.03 995.34 995.45 995.71 995.93 996.04 996.16 996.36 996.62 996.74 996.95 997.18 997.46 997.42 997.32 997.29 997.08 996.94 996.89 996.81 996.83 997.00 997.31 997.83 998.62 999.31 1000.26 1001.34 1001.86 1002.19 1002.63 1002.98 1003.95 1005.34 1006.15 1007.13 1008.09 1008.91 1009.85 1010.83 1011.78 1012.77 1013.66 1014.54 1015.60 1016.54 1017.35 1018.07 1018.68 1019.05 1019.31
993.64 993.99 994.52 995.22 995.55 995.75 995.67 995.86 996.15 996.27 996.60 996.86 997.02 997.17 997.46 997.34 997.47 997.16 996.81 996.88 996.86 996.66 996.41 996.51 996.68 996.97 997.31 998.05 998.62 999.24 999.88 1001.18 1001.80 1002.52 1003.40 1004.35 1005.19 1006.17 1007.14 1008.03 1008.96 1009.86 1010.83 1011.87 1012.86 1013.74 1014.62 1015.58 1016.58 1017.34 1018.05 1018.61 1019.00 1019.36
993.97 994.21 994.51 995.13 995.58 995.63 995.79 995.78 996.25 996.64 996.77 996.86 996.98 997.09 997.12 996.71 997.03 996.85 996.62 996.59 996.55 996.25 996.20 996.26 996.60 997.20 997.72 998.30 998.76 999.35 1000.17 1001.00 1001.89 1002.53 1003.31 1003.98 1004.75 1006.06 1007.23 1008.17 1009.10 1010.03 1011.06 1012.08 1013.02 1013.88 1014.83 1015.75 1016.64 1017.37 1018.02 1018.51 1018.98 1019.36
Wind_Speed
27 27 26 25 22 23 23 20 19 16 14 13 12 11 10 7 7 5 2 4 3 4 5 5 3 2 5 2 1 5 5 3 3 1 3 5 4 3 1 4 6 7 6 3 2 1 8 6 3 6 7 1 3 4
27 28 26 24 24 23 23 22 19 17 16 15 13 12 12 10 7 7 2 2 3 3 4 2 6 8 9 11 4 3 3 2 5 1 2 1 3 0 3 3 2 2 7 6 10 8 6 7 4 4 5 4 2 6
29 29 28 25 26 24 22 24 21 18 16 15 13 13 12 13 10 8 2 1 1 2 5 7 10 15 6 10 7 3 4 4 1 3 2 3 3 5 3 6 2 2 4 3 4 4 7 6 3 3 5 5 5 5
31 29 29 28 26 24 24 26 21 19 17 15 15 13 12 12 13 8 2 1 2 1 4 6 1 4 4 7 12 12 7 4 2 2 2 3 2 3 3 3 4 5 5 4 5 7 6 7 7 6 4 6 8 7
30 29 29 28 27 26 27 24 21 19 17 17 15 15 13 12 12 5 1 3 3 3 4 3 10 16 7 7 13 9 5 2 1 2 2 4 2 2 1 2 4 6 8 6 8 8 5 5 6 9 8 7 9 9
30 30 29 28 27 26 23 21 20 18 18 16 15 15 13 11 15 3 2 2 5 4 3 4 4 4 3 4 4 4 4 4 3 4 5 3 3 2 3 4 6 6 4 6 5 4 4 3 6 5 7 8 7 9
32 32 30 29 27 27 24 23 22 20 18 15 15 14 13 16 6 4 5 3 6 3 3 5 5 3 3 4 3 2 3 4 4 3 4 3 2 3 3 6 5 7 8 6 5 8 4 3 5 7 10 8 10 8
33 32 31 30 28 27 25 23 22 20 18 17 16 14 12 15 4 3 3 5 4 2 2 3 5 4 3 3 1 3 3 2 3 3 0 3 1 2 6 7 7 2 2 4 9 2 5 7 8 8 7 8 9 7
34 33 32 30 29 28 27 26 23 20 19 17 15 14 5 3 4 4 11 14 2 3 3 3 2 5 2 1 2 1 2 2 1 4 4 5 3 8 8 9 6 9 8 9 5 6 8 9 10 9 9 8 9 7
35 34 32 31 29 29 28 26 24 22 20 20 6 3 3 4 8 8 4 2 5 5 5 4 3 3 2 1 2 1 1 4 3 6 4 4 7 7 9 8 6 8 9 12 10 6 6 6 10 8 8 7 8 7
35 34 33 31 29 28 28 27 27 26 22 3 4 3 2 9 3 2 4 5 4 4 4 5 9 4 3 4 4 4 3 2 3 5 6 4 7 7 10 15 10 8 12 13 4 8 9 14 12 9 8 7 7 8
35 34 33 31 30 29 29 29 30 11 6 8 8 6 3 2 3 5 5 4 5 7 4 5 6 6 2 1 2 3 3 2 7 3 4 6 6 8 4 6 8 10 12 9 7 11 10 11 10 9 8 8 7 8
36 34 33 32 31 31 32 31 29 21 21 4 5 5 4 4 6 7 8 5 5 5 6 5 5 5 3 3 1 2 3 6 2 2 7 7 4 3 5 6 7 8 10 10 8 9 10 9 9 8 9 7 8 8
34 33 32 32 33 33 33 34 32 24 7 4 6 8 7 7 8 7 7 6 6 4 7 10 4 4 4 4 2 3 4 3 1 4 9 5 7 7 6 6 10 9 10 11 11 12 12 11 9 9 10 8 9 7
33 32 31 31 32 33 35 35 33 8 5 5 6 9 10 5 4 4 3 1 4 2 4 3 4 3 2 3 4 2 1 6 8 6 5 5 6 11 9 7 11 11 12 12 11 12 12 12 12 8 7 7 8 7
33 28 18 29 33 34 37 33 14 3 3 6 6 4 4 5 3 3 4 6 4 3 3 3 3 4 4 3 3 9 6 7 6 6 2 4 9 11 11 10 10 11 12 12 10 11 12 12 11 9 7 7 7 7
31 3 29 32 34 35 36 10 4 5 7 7 4 4 4 3 7 6 5 5 5 6 5 4 6 9 2 3 4 5 7 6 3 4 2 5 10 12 11 11 12 13 13 12 11 10 8 8 10 9 8 4 6 6
8 17 33 35 27 27 5 3 5 7 8 5 7 8 5 3 4 3 5 4 5 4 6 6 4 4 6 7 5 6 6 5 1 2 3 5 7 10 11 13 11 13 12 11 11 9 9 10 9 5 7 6 6 5
17 20 36 37 19 7 4 2 3 6 3 4 3 5 5 3 3 3 2 2 3 1 5 4 4 4 6 5 5 5 5 5 3 1 2 5 8 11 11 11 11 11 12 11 12 9 7 8 7 6 5 5 4 4
27 31 35 36 21 4 5 2 1 4 7 6 3 6 5 7 5 3 3 4 4 3 2 5 5 5 5 4 2 4 4 5 6 4 3 4 5 11 12 12 9 11 10 9 8 11 7 6 4 5 5 5 5 4
18 18 34 24 4 3 3 5 4 4 5 5 4 6 4 3 6 7 5 5 4 4 3 4 4 7 15 3 3 3 4 7 6 6 10 9 9 10 9 9 11 9 9 8 9 8 9 7 5 5 5 5 5 5
4 28 7 6 4 3 3 2 4 4 4 4 4 4 3 4 5 5 3 5 5 4 5 4 4 5 5 4 5 5 4 4 5 7 10 15 10 11 10 11 11 9 8 8 9 8 6 6 6 6 6 6 6 4
16 5 4 5 5 4 4 4 5 5 5 8 4 4 3 3 5 5 5 4 5 5 6 7 6 6 6 4 3 2 5 7 6 8 10 8 9 10 10 10 9 11 8 4 7 8 7 10 10 7 7 6 5 4
11 4 5 4 5 5 5 4 4 5 4 6 6 4 4 5 3 2 4 5 4 4 6 9 8 4 1 2 4 5 6 5 7 7 7 11 10 9 9 8 8 6 8 8 8 8 8 7 11 7 7 6 5 5
7 6 7 6 4 6 5 6 4 4 5 5 6 4 4 3 3 5 5 5 7 7 9 8 8 8 7 6 3 4 6 8 9 9 8 10 11 9 7 6 6 7 10 11 9 10 8 7 7 8 8 7 8 7
5 4 5 6 4 6 7 6 8 8 6 6 6 4 4 4 5 6 6 9 7 10 12 12 12 10 6 6 8 8 9 8 10 10 8 10 12 13 13 12 10 4 6 9 12 13 11 10 9 10 8 10 14 7
5 4 3 2 4 6 5 4 4 5 6 7 6 6 5 6 7 7 5 5 7 8 13 14 13 14 12 9 6 6 8 9 7 6 7 9 9 10 13 16 16 10 9 12 12 14 14 12 11 9 8 5 6 6
4 6 9 7 3 2 6 6 6 7 6 5 8 7 10 12 9 5 5 2 3 4 9 10 11 10 10 11 10 10 9 9 11 10 9 8 5 4 6 6 8 20 11 11 11 11 11 12 11 10 9 8 5 5
3 3 5 4 3 3 4 6 6 5 5 7 9 5 6 4 0 2 2 2 4 5 8 9 6 7 7 8 8 10 12 14 19 20 17 11 8 2 5 9 11 10 9 10 17 15 15 12 11 10 9 8 5 5
5 4 5 5 6 4 1 2 2 3 2 3 3 3 0 2 2 2 2 2 3 7 9 11 11 13 13 13 11 9 8 10 12 16 20 18 14 10 10 11 11 11 10 11 11 12 20 14 14 8 8 6 5 4
4 2 4 3 4 4 4 2 2 2 2 2 1 3 3 1 2 3 2 1 2 3 7 10 11 11 14 14 14 15 11 5 7 8 8 10 12 12 12 12 11 11 12 13 13 12 13 11 10 10 10 9 9 8
3 3 4 3 1 2 2 3 1 1 2 2 1 2 1 2 2 2 2 2 4 7 11 11 11 12 12 10 9 5 12 8 10 12 18 12 12 13 13 12 12 12 13 14 12 13 15 14 11 10 10 10 9 8
3 2 3 4 3 4 2 4 3 2 1 2 3 3 3 3 3 2 2 1 3 5 8 7 7 8 9 10 10 10 13 10 15 19 23 24 25 20 13 11 12 13 16 13 13 13 14 15 12 12 11 10 9 8
Wind_Direction
205 211 204 211 215 211 212 214 215 211 210 218 215 211 202 218 203 155 222 174 194 233 273 252 268 301 328 358 224 293 359 341 40 170 168 229 192 240 215 170 176 170 145 197 87 114 286 164 88 167 220 29 102 100
208 213 208 203 214 211 210 212 212 208 212 209 210 210 200 190 198 171 246 252 157 206 261 235 229 224 220 232 180 284 253 300 222 117 245 306 258 85 159 243 86 230 182 182 175 213 237 215 198 204 155 138 133 117
209 208 207 205 211 206 207 215 207 206 207 203 203 200 201 192 188 172 189 231 123 245 274 236 244 253 211 212 188 206 280 267 311 182 243 257 249 125 182 242 199 241 159 196 70 261 235 235 226 174 168 146 134 127
208 205 204 208 207 201 208 209 203 202 202 199 198 196 198 198 186 155 169 221 127 293 261 274 347 271 249 220 204 211 223 326 314 59 241 250 203 156 217 238 175 197 122 190 266 283 295 255 203 175 134 114 108 105
206 203 200 200 199 201 209 201 197 199 200 198 192 192 193 194 177 117 148 234 216 188 276 289 313 287 245 203 212 199 184 163 257 290 212 243 250 113 287 40 241 187 185 170 228 214 177 232 186 161 148 147 142 127
201 200 197 199 195 199 195 197 197 195 195 194 190 188 189 182 130 115 316 246 206 170 279 286 276 273 224 162 183 205 187 194 201 192 223 248 253 145 153 229 256 221 212 199 231 178 172 85 112 123 127 137 131 129
194 196 195 194 191 187 185 193 196 194 191 189 186 179 171 155 147 163 196 188 160 106 255 286 277 290 220 156 129 185 177 214 183 221 231 194 239 117 128 231 234 227 228 225 167 119 63 190 172 140 125 134 127 122
190 192 193 189 187 180 185 190 188 188 187 185 176 166 165 156 79 279 165 140 133 181 271 263 263 334 203 168 73 172 195 180 240 228 52 179 68 76 257 237 234 206 34 156 175 286 166 117 103 110 118 122 125 138
187 188 189 186 184 182 183 188 180 180 176 161 156 110 80 94 186 234 178 184 183 194 226 219 242 254 358 6 118 303 166 160 290 216 224 110 197 223 227 219 206 199 187 171 128 116 119 126 133 132 130 129 132 150
183 184 182 184 181 178 179 180 174 170 160 132 90 113 173 209 151 124 43 159 209 196 219 213 188 262 162 139 150 260 140 218 185 231 105 163 250 252 240 217 209 194 170 137 117 122 122 131 147 147 155 149 147 146
178 180 181 180 177 174 176 178 169 157 132 118 125 141 163 149 75 115 203 205 182 225 217 196 193 172 215 176 177 204 215 183 189 231 154 236 263 244 217 228 187 179 167 176 137 154 155 151 152 146 143 141 128 132
176 177 177 175 171 168 177 172 162 136 136 147 122 104 112 134 190 195 196 204 200 222 198 198 197 151 166 189 134 239 203 69 238 135 105 249 244 239 213 190 173 155 150 141 148 139 135 138 143 137 132 126 128 122
173 174 175 172 171 172 175 161 153 133 122 88 83 122 134 174 203 202 192 185 197 204 200 187 145 138 114 78 240 244 179 221 79 79 229 234 244 227 181 132 122 129 132 126 115 121 128 123 121 124 122 121 123 118
172 172 173 170 169 170 167 153 144 143 106 108 146 159 202 191 216 187 191 185 219 213 192 164 127 160 145 132 169 256 246 92 278 232 233 243 208 175 156 137 128 141 133 124 129 131 128 128 118 116 127 133 126 118
168 167 162 165 169 169 161 151 153 138 113 154 166 200 197 205 225 202 189 306 243 178 132 88 78 117 77 141 193 39 355 246 216 230 233 235 165 152 149 143 136 135 130 127 129 127 126 122 123 117 124 121 114 118
160 150 165 170 170 163 153 153 158 86 107 157 201 169 160 151 251 173 198 229 190 152 85 66 106 118 201 198 159 224 162 228 234 223 246 132 152 150 147 143 137 133 130 129 125 125 124 128 134 131 115 112 119 128
152 123 164 167 164 154 152 135 116 165 183 189 188 205 173 162 199 204 175 212 163 150 157 151 188 206 88 158 236 192 212 239 241 275 197 171 160 148 143 135 136 133 130 128 121 126 118 115 117 115 118 132 128 128
148 146 160 159 152 151 124 102 136 169 192 188 157 176 194 195 168 199 213 156 142 191 181 192 143 166 204 186 236 221 240 285 324 234 150 126 132 141 144 138 136 133 129 129 128 121 124 130 131 132 130 135 119 115
145 153 156 155 150 94 108 135 178 175 165 149 190 166 165 178 228 238 162 164 198 277 131 122 235 219 221 218 239 251 222 172 191 118 85 123 141 138 133 129 127 128 130 132 134 138 140 139 141 139 139 132 129 131
146 154 156 157 143 100 120 107 148 145 176 182 153 172 177 202 203 188 199 174 156 175 192 187 198 233 209 230 240 283 290 167 136 119 126 136 143 136 141 140 139 133 120 113 111 119 114 102 108 131 134 137 129 133
131 162 157 151 95 98 135 158 160 162 145 179 158 144 191 147 191 199 194 167 161 182 205 207 226 237 254 263 275 263 227 194 208 163 164 157 162 144 137 125 134 135 135 137 134 139 132 143 148 130 122 123 125 131
188 147 129 77 96 169 132 194 128 139 128 134 131 135 165 182 202 193 157 194 195 183 188 183 238 237 258 247 248 202 205 168 147 124 130 136 145 148 148 148 143 142 144 148 145 145 140 137 131 121 124 130 124 124
87 95 98 129 127 124 144 175 119 143 151 168 129 125 209 201 212 132 210 215 211 206 200 206 213 226 249 202 195 144 163 157 148 148 149 143 140 137 140 147 145 140 137 132 134 136 139 147 142 129 134 128 124 122
98 106 124 130 120 131 149 154 147 134 139 159 154 199 203 204 134 168 208 196 212 189 181 198 197 172 117 185 184 177 173 156 139 140 143 139 137 142 144 141 140 142 142 134 131 134 137 134 138 137 137 130 132 136
111 184 145 146 143 134 136 139 149 131 139 164 153 183 179 146 161 198 214 211 198 192 193 187 195 198 181 208 171 172 169 167 160 152 165 148 130 119 111 106 112 136 139 133 142 143 139 133 137 143 139 141 147 154
115 197 155 146 162 130 158 140 167 157 137 151 191 143 144 161 176 230 218 213 189 189 187 189 194 201 206 184 176 177 181 171 157 157 164 163 163 154 150 147 147 160 169 150 148 149 144 143 148 147 144 154 160 149
132 167 175 218 133 125 102 92 113 126 159 176 159 158 160 179 211 233 231 220 198 197 191 191 185 191 194 185 171 151 156 166 163 147 132 157 159 161 160 159 172 166 152 152 154 153 150 149 151 150 146 138 146 158
151 169 159 152 122 129 117 122 146 179 180 162 134 172 184 193 222 214 207 281 289 236 182 186 188 188 177 174 158 145 133 119 106 105 93 62 47 88 110 106 121 143 143 148 147 145 148 147 148 149 147 146 146 155
101 161 101 93 104 149 163 164 198 203 144 157 168 170 218 221 223 248 276 313 311 176 147 153 143 137 136 138 147 147 150 150 147 153 156 153 148 166 135 130 142 137 138 138 146 142 144 141 144 146 142 141 141 140
161 182 124 143 130 179 221 221 199 133 109 136 124 103 263 250 248 223 262 264 230 198 176 164 156 153 152 151 147 153 173 179 174 173 157 176 171 146 146 146 143 139 139 137 134 138 138 131 133 121 123 127 135 140
117 102 75 72 170 171 154 156 135 109 77 85 27 134 194 246 276 212 243 246 219 175 167 163 168 166 160 161 162 159 171 197 165 126 108 122 141 143 144 145 142 140 139 139 140 141 139 135 140 141 142 147 159 152
117 127 130 114 88 305 116 126 117 89 118 141 173 116 177 123 256 259 198 185 186 182 181 173 170 175 170 170 166 145 135 133 140 135 136 141 139 139 139 137 137 139 138 139 140 140 141 142 146 149 151 153 151 154
93 99 105 119 135 164 171 111 110 110 98 179 205 199 234 162 208 257 310 212 226 180 178 170 154 150 150 152 150 138 136 137 143 145 143 142 139 138 135 137 138 138 138 138 141 142 141 142 144 147 150 150 149 153